ASY101 OMDM-ESPA

Flight info

Callsign ASY101
Flight time N/A
Altitude 38000
Route TUDIS N571 ALPOB L768 RABLA M556 OBROS L768 ULADA Q143 TAYMA N697 BPN H999 HIL N697 SOBAS/N0475F400 N697 RUKET L550 NOVPA N697 MENLI L677 GESON DCT MERPI A16 RASDA M855 KOMEZ DCT TOMBI UA16 EKSEN UL610 OSGED UL620 APSER UL610 YAA UG123 MAKOL T67 IVGOT DCT RIVOS DCT KENUX DCT BUKOV/K0867F400 P159 ROLKA/N0472F400 P159 GITOV DCT GARSO DCT OLANU/N0472F410 DCT KINTI/N0470F400 DCT ROGMI DCT ARTAB/N0477F410 DCT RIKPA DCT EDAXA DCT LENSO DCT UMSOM DCT LAPIX DCT SOPLI DCT GOSDI
Aircraft A339/H-SADE1E2E3GHIJ3J5M1P2RWXY/LB2D1

Departure

Time N/A
Airport Al Minhad Air Base (OMDM)

Arrival

Time 2026-05-08 01:58
Airport Luleå Airport (ESPA)
Time Latitude Longitude Altitude Speed Heading
2026-05-08 00:43 57.49538 17.25940 40220 ft 467 kts 266°
2026-05-08 00:44 57.49631 17.21919 40205 ft 469 kts 279°
2026-05-08 00:44 57.50691 17.16236 40223 ft 474 kts 297°
2026-05-08 00:44 57.53335 17.09793 40235 ft 478 kts 314°
2026-05-08 00:45 57.58902 17.03105 40234 ft 486 kts 338°
2026-05-08 00:45 57.62210 17.01661 40242 ft 491 kts 352°
2026-05-08 00:45 57.64485 17.01578 40224 ft 494 kts
2026-05-08 00:45 57.67810 17.02818 40233 ft 498 kts 18°
2026-05-08 00:46 57.70928 17.05756 40254 ft 501 kts 34°
2026-05-08 00:46 57.74330 17.11629 40242 ft 502 kts 45°
2026-05-08 00:46 57.75932 17.14757 40241 ft 502 kts 45°
2026-05-08 00:47 57.81517 17.25682 40228 ft 502 kts 45°
2026-05-08 00:47 57.85578 17.33545 40237 ft 502 kts 44°
2026-05-08 00:48 57.90429 17.42912 40240 ft 503 kts 44°
2026-05-08 00:48 57.95271 17.52284 40240 ft 504 kts 44°
2026-05-08 00:49 58.00141 17.61750 40235 ft 504 kts 44°
2026-05-08 00:49 58.04987 17.71213 40223 ft 504 kts 45°
2026-05-08 00:50 58.10635 17.82300 40221 ft 504 kts 45°
2026-05-08 00:50 58.14886 17.89761 40221 ft 502 kts 35°
2026-05-08 00:51 58.21263 17.96766 40225 ft 498 kts 20°
2026-05-08 00:51 58.27826 18.00446 40223 ft 493 kts
2026-05-08 00:52 58.34619 18.01743 40224 ft 491 kts
2026-05-08 00:52 58.41399 18.02610 40224 ft 491 kts
2026-05-08 00:53 58.48192 18.03516 40233 ft 491 kts
2026-05-08 00:53 58.54958 18.04456 40320 ft 493 kts
2026-05-08 00:53 58.58377 18.04942 40679 ft 487 kts
2026-05-08 00:54 58.61710 18.05418 41005 ft 483 kts
2026-05-08 00:54 58.65053 18.05897 41194 ft 483 kts
2026-05-08 00:54 58.68372 18.06373 41234 ft 487 kts
2026-05-08 00:55 58.75153 18.07345 41238 ft 493 kts
2026-05-08 00:55 58.81975 18.08332 41241 ft 494 kts
2026-05-08 00:56 58.88765 18.09321 41238 ft 494 kts
2026-05-08 00:56 58.95615 18.10319 41238 ft 494 kts
2026-05-08 00:57 59.02412 18.11315 41220 ft 494 kts
2026-05-08 00:57 59.09267 18.12323 41226 ft 495 kts
2026-05-08 00:58 59.16092 18.13331 41235 ft 495 kts
2026-05-08 00:58 59.22945 18.14347 41222 ft 494 kts
2026-05-08 00:59 59.29744 18.15359 41224 ft 493 kts
2026-05-08 00:59 59.36562 18.16377 41216 ft 493 kts
2026-05-08 01:00 59.43359 18.17398 41226 ft 493 kts
2026-05-08 01:00 59.50173 18.18424 41220 ft 493 kts
2026-05-08 01:01 59.56969 18.19450 41220 ft 493 kts
2026-05-08 01:01 59.63781 18.20487 41226 ft 493 kts
2026-05-08 01:02 59.70566 18.21521 41222 ft 493 kts
2026-05-08 01:02 59.77369 18.22560 41225 ft 493 kts
2026-05-08 01:03 59.84181 18.23610 41210 ft 493 kts 360°
2026-05-08 01:03 59.90940 18.24651 41221 ft 493 kts 360°
2026-05-08 01:04 59.97742 18.25706 41221 ft 492 kts 360°
2026-05-08 01:04 60.04530 18.26763 41231 ft 491 kts 360°
2026-05-08 01:05 60.11314 18.27822 41232 ft 491 kts 360°
2026-05-08 01:05 60.18131 18.28892 41226 ft 492 kts 360°
2026-05-08 01:06 60.24893 18.29956 41231 ft 491 kts 360°
2026-05-08 01:06 60.31666 18.31029 41237 ft 492 kts 360°
2026-05-08 01:07 60.38479 18.32112 41229 ft 491 kts 360°
2026-05-08 01:07 60.45262 18.33197 41233 ft 492 kts 360°
2026-05-08 01:08 60.52049 18.34285 41230 ft 492 kts 360°
2026-05-08 01:08 60.58818 18.35376 41231 ft 492 kts 360°
2026-05-08 01:09 60.65613 18.36476 41236 ft 492 kts 360°
2026-05-08 01:09 60.72393 18.37579 41238 ft 492 kts 360°
2026-05-08 01:10 60.79186 18.38692 41234 ft 491 kts 360°
2026-05-08 01:10 60.85941 18.39804 41234 ft 492 kts 360°
2026-05-08 01:11 60.92740 18.40927 41228 ft 491 kts
2026-05-08 01:11 60.99513 18.42734 41237 ft 495 kts
2026-05-08 01:12 61.06177 18.45994 41235 ft 499 kts 11°
2026-05-08 01:12 61.12827 18.50212 41233 ft 500 kts 13°
2026-05-08 01:13 61.19412 18.54517 41228 ft 500 kts 13°
2026-05-08 01:13 61.25989 18.58810 41230 ft 499 kts 12°
2026-05-08 01:14 61.32580 18.63112 41235 ft 500 kts 12°
2026-05-08 01:14 61.39231 18.67464 41233 ft 502 kts 13°
2026-05-08 01:15 61.45835 18.71809 41234 ft 501 kts 13°
2026-05-08 01:15 61.52454 18.76182 41227 ft 501 kts 13°
2026-05-08 01:16 61.59101 18.80594 41243 ft 501 kts 13°
2026-05-08 01:16 61.65712 18.85005 41239 ft 501 kts 13°
2026-05-08 01:17 61.72318 18.89434 41227 ft 501 kts 13°
2026-05-08 01:17 61.78946 18.93901 41224 ft 502 kts 13°
2026-05-08 01:18 61.85529 18.98344 41235 ft 502 kts 13°
2026-05-08 01:18 61.92181 19.02840 41225 ft 501 kts 13°
2026-05-08 01:19 61.98780 19.07332 41240 ft 502 kts 13°
2026-05-08 01:19 62.05385 19.11855 41225 ft 502 kts 13°
2026-05-08 01:20 62.12024 19.16422 41236 ft 502 kts 13°
2026-05-08 01:20 62.18652 19.21009 41229 ft 502 kts 13°
2026-05-08 01:21 62.25232 19.25582 41227 ft 502 kts 13°
2026-05-08 01:21 62.31843 19.30196 41221 ft 501 kts 13°
2026-05-08 01:22 62.38421 19.34812 41233 ft 501 kts 13°
2026-05-08 01:22 62.44980 19.39428 41227 ft 501 kts 14°
2026-05-08 01:23 62.51556 19.44086 41227 ft 501 kts 14°
2026-05-08 01:23 62.58155 19.48785 41227 ft 500 kts 14°
2026-05-08 01:24 62.64754 19.53504 41227 ft 501 kts 14°
2026-05-08 01:24 62.71317 19.58224 41222 ft 500 kts 14°
2026-05-08 01:25 62.77882 19.62967 41220 ft 500 kts 14°
2026-05-08 01:25 62.84365 19.67656 41219 ft 501 kts 14°
2026-05-08 01:26 62.90910 19.72415 41217 ft 501 kts 15°
2026-05-08 01:26 62.97501 19.77250 41219 ft 502 kts 15°
2026-05-08 01:27 63.04092 19.82108 41221 ft 500 kts 15°
2026-05-08 01:27 63.10640 19.86962 41054 ft 501 kts 15°
2026-05-08 01:27 63.13941 19.89419 40805 ft 501 kts 15°
2026-05-08 01:28 63.17182 19.91837 40557 ft 500 kts 14°
2026-05-08 01:28 63.20516 19.94331 40317 ft 500 kts 15°
2026-05-08 01:28 63.23741 19.96754 40068 ft 494 kts 14°
2026-05-08 01:28 63.26970 19.99180 39816 ft 486 kts 14°
2026-05-08 01:29 63.30133 20.01566 39488 ft 479 kts 14°
2026-05-08 01:29 63.33250 20.03921 39070 ft 478 kts 14°
2026-05-08 01:29 63.36405 20.06291 38535 ft 478 kts 14°
2026-05-08 01:29 63.39518 20.08625 37983 ft 478 kts 13°
2026-05-08 01:30 63.42656 20.10980 37476 ft 479 kts 13°
2026-05-08 01:30 63.45781 20.13334 36927 ft 480 kts 13°
2026-05-08 01:30 63.48929 20.15717 36378 ft 480 kts 13°
2026-05-08 01:30 63.52064 20.18095 35841 ft 480 kts 13°
2026-05-08 01:31 63.55203 20.20485 35280 ft 479 kts 13°
2026-05-08 01:31 63.58330 20.22873 34701 ft 479 kts 13°
2026-05-08 01:31 63.61459 20.25266 34048 ft 479 kts 12°
2026-05-08 01:31 63.64628 20.27699 33407 ft 481 kts 12°
2026-05-08 01:32 63.67754 20.30104 32817 ft 481 kts 12°
2026-05-08 01:32 63.70888 20.32525 32204 ft 480 kts 11°
2026-05-08 01:32 63.74044 20.34968 31586 ft 479 kts 11°
2026-05-08 01:32 63.77160 20.37388 30964 ft 477 kts 10°
2026-05-08 01:33 63.80245 20.39783 30289 ft 475 kts 10°
2026-05-08 01:33 63.83347 20.42189 29606 ft 472 kts 11°
2026-05-08 01:33 63.86413 20.44574 28896 ft 469 kts 11°
2026-05-08 01:33 63.89489 20.46978 28257 ft 463 kts 11°
2026-05-08 01:34 63.92493 20.49339 27700 ft 457 kts 11°
2026-05-08 01:34 63.95453 20.51666 27193 ft 449 kts 11°
2026-05-08 01:34 63.98379 20.53976 26721 ft 443 kts 11°
2026-05-08 01:34 64.01219 20.56224 26261 ft 436 kts 11°
2026-05-08 01:35 64.04077 20.58496 25804 ft 430 kts 11°
2026-05-08 01:35 64.06841 20.60695 25351 ft 424 kts 11°
2026-05-08 01:35 64.09596 20.62892 24872 ft 419 kts 11°
2026-05-08 01:35 64.12328 20.65073 24371 ft 414 kts 12°
2026-05-08 01:36 64.14722 20.66988 23923 ft 411 kts 13°
2026-05-08 01:36 64.17414 20.69145 23402 ft 408 kts 13°
2026-05-08 01:36 64.20083 20.71291 22906 ft 404 kts 13°
2026-05-08 01:36 64.22731 20.73427 22430 ft 400 kts 13°
2026-05-08 01:37 64.25320 20.75508 21965 ft 397 kts 14°
2026-05-08 01:37 64.27926 20.77597 21472 ft 394 kts 14°
2026-05-08 01:37 64.30483 20.79653 21007 ft 391 kts 14°
2026-05-08 01:37 64.33017 20.81695 20511 ft 389 kts 14°
2026-05-08 01:38 64.35545 20.83740 20033 ft 386 kts 15°
2026-05-08 01:38 64.38052 20.85775 19584 ft 383 kts 15°
2026-05-08 01:38 64.40547 20.87806 19108 ft 380 kts 15°
2026-05-08 01:38 64.43018 20.89822 18635 ft 378 kts 15°
2026-05-08 01:39 64.45473 20.91827 18172 ft 375 kts 16°
2026-05-08 01:39 64.47920 20.93830 17730 ft 373 kts 16°
2026-05-08 01:39 64.50357 20.95830 17273 ft 371 kts 16°
2026-05-08 01:39 64.52755 20.97803 16819 ft 369 kts 17°
2026-05-08 01:40 64.55170 20.99791 16382 ft 366 kts 17°
2026-05-08 01:40 64.57535 21.01744 15924 ft 364 kts 17°
2026-05-08 01:40 64.59904 21.03704 15472 ft 362 kts 17°
2026-05-08 01:40 64.62261 21.05658 15037 ft 359 kts 17°
2026-05-08 01:41 64.64571 21.07574 14607 ft 356 kts 17°
2026-05-08 01:41 64.66896 21.09509 14175 ft 354 kts 17°
2026-05-08 01:41 64.69186 21.11416 13740 ft 351 kts 17°
2026-05-08 01:41 64.71488 21.13338 13277 ft 349 kts 17°
2026-05-08 01:42 64.73759 21.15236 12860 ft 346 kts 17°
2026-05-08 01:42 64.75988 21.17102 12418 ft 344 kts 17°
2026-05-08 01:42 64.78231 21.18985 11982 ft 342 kts 18°
2026-05-08 01:42 64.80466 21.20863 11537 ft 340 kts 18°
2026-05-08 01:43 64.82677 21.22725 11064 ft 339 kts 18°
2026-05-08 01:43 64.84871 21.24578 10814 ft 331 kts 18°
2026-05-08 01:43 64.86968 21.26355 10704 ft 318 kts 18°
2026-05-08 01:43 64.89030 21.28104 10585 ft 307 kts 18°
2026-05-08 01:44 64.90995 21.29773 10474 ft 297 kts 18°
2026-05-08 01:44 64.92892 21.31385 10379 ft 287 kts 17°
2026-05-08 01:44 64.94727 21.32946 10297 ft 277 kts 17°
2026-05-08 01:44 64.96511 21.34465 10220 ft 268 kts 17°
2026-05-08 01:45 64.98199 21.36131 10173 ft 261 kts 27°
2026-05-08 01:45 64.99675 21.38647 10051 ft 264 kts 40°
2026-05-08 01:45 65.00949 21.41834 9608 ft 271 kts 46°
2026-05-08 01:45 65.02187 21.45224 9220 ft 274 kts 47°
2026-05-08 01:46 65.03419 21.48634 8852 ft 276 kts 47°
2026-05-08 01:46 65.04665 21.52075 8494 ft 278 kts 46°
2026-05-08 01:46 65.05925 21.55533 8135 ft 279 kts 46°
2026-05-08 01:46 65.07184 21.58979 7777 ft 280 kts 46°
2026-05-08 01:47 65.08461 21.62470 7441 ft 280 kts 46°
2026-05-08 01:47 65.09734 21.65953 7215 ft 276 kts 47°
2026-05-08 01:47 65.10977 21.69360 6957 ft 274 kts 47°
2026-05-08 01:48 65.13451 21.76130 6449 ft 269 kts 47°
2026-05-08 01:48 65.14666 21.79460 6246 ft 266 kts 47°
2026-05-08 01:48 65.15830 21.82658 6011 ft 264 kts 47°
2026-05-08 01:48 65.17036 21.85977 5736 ft 263 kts 47°
2026-05-08 01:49 65.18221 21.89247 5468 ft 263 kts 47°
2026-05-08 01:49 65.19412 21.92536 5205 ft 262 kts 47°
2026-05-08 01:49 65.20595 21.95813 4954 ft 261 kts 47°
2026-05-08 01:49 65.21764 21.99051 4709 ft 260 kts 47°
2026-05-08 01:50 65.22945 22.02332 4460 ft 258 kts 47°
2026-05-08 01:50 65.24104 22.05560 4217 ft 257 kts 47°
2026-05-08 01:50 65.25257 22.08770 3975 ft 256 kts 47°
2026-05-08 01:50 65.26415 22.11999 3722 ft 255 kts 47°
2026-05-08 01:51 65.27556 22.15185 3481 ft 255 kts 47°
2026-05-08 01:51 65.28707 22.18405 3240 ft 254 kts 47°
2026-05-08 01:51 65.29838 22.21571 3000 ft 253 kts 47°
2026-05-08 01:51 65.30974 22.24763 2779 ft 251 kts 47°
2026-05-08 01:52 65.32098 22.27923 2610 ft 248 kts 47°
2026-05-08 01:52 65.33194 22.31004 2479 ft 243 kts 47°
2026-05-08 01:52 65.34305 22.33959 2435 ft 234 kts 45°
2026-05-08 01:52 65.35381 22.36760 2432 ft 225 kts 45°
2026-05-08 01:53 65.36417 22.39449 2430 ft 216 kts 45°
2026-05-08 01:53 65.37409 22.42029 2429 ft 206 kts 45°
2026-05-08 01:53 65.38367 22.44479 2429 ft 198 kts 39°
2026-05-08 01:53 65.39608 22.45726 2419 ft 196 kts 355°
2026-05-08 01:54 65.40800 22.44438 2434 ft 196 kts 313°
2026-05-08 01:54 65.41647 22.41864 2444 ft 197 kts 308°
2026-05-08 01:54 65.42497 22.39300 2444 ft 197 kts 311°
2026-05-08 01:54 65.43415 22.36851 2441 ft 196 kts 314°
2026-05-08 01:55 65.44363 22.34559 2393 ft 193 kts 316°
2026-05-08 01:55 65.45321 22.32389 2159 ft 184 kts 317°
2026-05-08 01:55 65.46232 22.30364 1922 ft 174 kts 317°
2026-05-08 01:55 65.47097 22.28443 1701 ft 165 kts 317°
2026-05-08 01:56 65.47917 22.26612 1476 ft 158 kts 317°
2026-05-08 01:56 65.48702 22.24856 1275 ft 151 kts 317°
2026-05-08 01:56 65.49449 22.23188 1080 ft 145 kts 317°
2026-05-08 01:56 65.50174 22.21569 889 ft 139 kts 317°
2026-05-08 01:57 65.50868 22.20019 705 ft 133 kts 317°
2026-05-08 01:57 65.51531 22.18539 531 ft 129 kts 317°
2026-05-08 01:57 65.52186 22.17078 366 ft 129 kts 317°
2026-05-08 01:57 65.52842 22.15614 191 ft 128 kts 317°
2026-05-08 01:58 65.53487 22.14169 47 ft 123 kts 317°
2026-05-08 01:58 65.53925 22.13195 50 ft 49 kts 319°
2026-05-08 01:58 65.54130 22.12746 52 ft 32 kts 317°
2026-05-08 01:58 65.54295 22.12382 53 ft 31 kts 317°
2026-05-08 01:59 65.54449 22.12038 56 ft 29 kts 317°
2026-05-08 01:59 65.54592 22.11719 59 ft 27 kts 317°
2026-05-08 01:59 65.54710 22.11458 63 ft 16 kts 323°
2026-05-08 01:59 65.54804 22.11502 63 ft 15 kts 44°
2026-05-08 02:00 65.54883 22.11709 60 ft 16 kts 48°
2026-05-08 02:00 65.54913 22.11907 59 ft 11 kts 121°
2026-05-08 02:00 65.54897 22.11951 58 ft 0 kts 134°